Terug naar catalogus

FENGYUN 1C DEB

ActiefSSO
NORAD 31336·DEBRIS·🇨🇳 China

Gelanceerd May 10, 1999 vanaf Taiyuan Satellite Launch Center

Loading…

Volgende Passages (komende 24 uur)

TLE

VersSource: Space-Track

Epoch: Sep 14, 2026, 15:13 UTC

1 31336U 99025BQQ 26257.63443226  .00000473  00000-0  15916-3 0  9992
2 31336  98.4295 313.6529 0092393  13.3930 139.2092 14.39175875 17441

Volg FENGYUN 1C DEB in realtime met AllMySat

Download on the App Store